Location: Woodhurst
(52.3667°N, 0.0667°W)
Time: 05:36:24
(UTC+00:00)

Cosmos 1980 Rocket - Pass Details

Date: 19 May 2025
Orbit: 829 x 847 km, 71.0° (Epoch: 13 June)

Event Time Altitude Azimuth Distance (km) Brightness Sun altitude
Rises 22:27:51 0° 325° (NW) 3,384 7.0 -15.1°
Reaches altitude 10° 22:30:25 10° 318° (NW) 2,447 5.7 -15.2°
Maximum altitude 22:35:35 40° 251° (WSW) 1,211 3.0 -15.5°
Enters shadow 22:39:03 19° 192° (SSW) 1,866 3.5 -15.7°
